Location: Marcé
(47.5801°N, 0.3280°W)
Time: 15:44:13
(UTC+01:00)

Explorer 7 - Pass Details

Date: 09 December 2021
Orbit: 483 x 674 km, 50.3° (Epoch: 19 January)

Event Time Altitude Azimuth Distance (km) Brightness Sun altitude
Rises 03:11:34 0° 183° (S) 2,931 - -53.0°
Reaches altitude 10° 03:15:40 10° 148° (SSE) 1,980 - -52.4°
Maximum altitude 03:16:56 11° 132° (SE) 1,897 - -52.2°
Drops below altitude 10° 03:18:10 10° 116° (ESE) 1,951 - -52.0°
Sets 03:22:05 0° 80° (E) 2,801 - -51.5°
